Weather History for KBLV - January, 2014

Change the Weather History Date:

Friday, January 24, 2014

  Actual Average Record
Temperature  
Mean Temperature 14 °F -  
Max Temperature 32 °F 44 °F 75 °F (1950)
Min Temperature 0 °F 23 °F -8 °F (1963)
Degree Days  
Heating Degree Days 50    
Moisture  
Dew Point 2 °F    
Average Humidity 53    
Maximum Humidity 86    
Minimum Humidity 31    
Precipitation  
Precipitation 0.00 in - - ()
Sea Level Pressure  
Sea Level Pressure 30.30 in    
Wind  
Wind Speed 6 mph (SSW)    
Max Wind Speed 12 mph    
Max Gust Speed 24 mph    
Visibility 10 miles    
Events      
Averages and records for this station are not official NWS values.
T = Trace of Precipitation, MM = Missing Value Source: NWS Daily Summary

Daily Weather History Graph

Daily Weather History Graph

Search for Another Location

Airport or City:

Trip Planner

Search our weather history database for the weather conditions in past years. The results will help you decide how hot, cold, wet, or windy it might be!

Date:

Astronomy

Jan. 24, 2014 Rise Set
Actual Time 7:10 AM CST 5:12 PM CST
Civil Twilight 6:42 AM CST 5:40 PM CST
Nautical Twilight 6:10 AM CST 6:13 PM CST
Astronomical Twilight 5:38 AM CST 6:44 PM CST
Moon 12:39 AM CST (1/24) 11:30 AM CST (1/24)
Length of Visible Light 10h 58m
Length of Day
10h 01m
Last Quarter, 44% of the Moon is Illuminated
Jan 24
Last Quarter
Jan 30
New
Feb 6
First Quarter
Feb 14
Full
Feb 22
Last Quarter

Hourly Weather History & Observations

Time (CST) Temp. Windchill Dew Point Humidity Pressure Visibility Wind Dir Wind Speed Gust Speed Precip Events Conditions
12:58 AM 0.1 °F - -4.0 °F 83% 30.75 in 10.0 mi SSW 2.3 mph - N/A   Clear
1:58 AM 1.2 °F - -2.2 °F 86% 30.73 in 10.0 mi SW 2.3 mph - N/A   Clear
2:58 AM 1.8 °F -7.8 °F -2.0 °F 84% 30.71 in 10.0 mi SW 4.6 mph - N/A   Clear
3:58 AM 1.8 °F -5.8 °F -2.6 °F 82% 30.67 in 10.0 mi SSW 3.5 mph - N/A   Clear
4:58 AM 0.7 °F -10.7 °F -4.2 °F 80% 30.64 in 10.0 mi SW 5.8 mph - N/A   Clear
5:58 AM 3.9 °F -6.9 °F -3.5 °F 71% 30.63 in 10.0 mi SSW 5.8 mph - N/A   Clear
6:58 AM 3.7 °F -9.6 °F -2.7 °F 74% 30.61 in 10.0 mi SSW 8.1 mph - N/A   Clear
7:58 AM 6.4 °F -9.0 °F -1.5 °F 70% 30.58 in 10.0 mi SSW 11.5 mph - N/A   Clear
8:58 AM 10.4 °F -1.5 °F 0.3 °F 64% 30.53 in 10.0 mi SSW 8.1 mph 18.4 mph N/A   Clear
9:58 AM 14.0 °F 0.5 °F 1.0 °F 56% 30.51 in 10.0 mi SW 11.5 mph 20.7 mph N/A   Clear
10:58 AM 18.1 °F 10.0 °F 1.6 °F 48% 30.45 in 10.0 mi Variable 5.8 mph 18.4 mph N/A   Clear
11:58 AM 21.7 °F 11.5 °F 3.4 °F 45% 30.37 in 10.0 mi SSW 9.2 mph - N/A   Clear
12:58 PM 24.1 °F 14.4 °F 2.7 °F 40% 30.28 in 10.0 mi SSW 9.2 mph - N/A   Clear
1:58 PM 28.4 °F 19.7 °F 3.9 °F 35% 30.21 in 10.0 mi SSW 9.2 mph 20.7 mph N/A   Clear
2:58 PM 28.4 °F 19.1 °F 3.2 °F 34% 30.13 in 10.0 mi South 10.4 mph 24.2 mph N/A   Scattered Clouds
3:58 PM 29.7 °F 20.7 °F 3.2 °F 32% 30.06 in 10.0 mi South 10.4 mph 20.7 mph N/A   Clear
4:58 PM 29.1 °F 20.0 °F 1.4 °F 31% 30.01 in 10.0 mi South 10.4 mph - N/A   Clear
5:58 PM 28.0 °F 21.7 °F 2.8 °F 34% 30.01 in 10.0 mi Variable 5.8 mph - N/A   Clear
6:58 PM 27.9 °F 21.5 °F 3.7 °F 36% 30.01 in 10.0 mi Variable 5.8 mph - N/A   Clear
7:58 PM 28.2 °F 20.2 °F 5.9 °F 39% 29.96 in 10.0 mi South 8.1 mph - N/A   Overcast
8:58 PM 28.2 °F 23.1 °F 5.9 °F 39% 29.92 in 10.0 mi Variable 4.6 mph - N/A   Overcast
9:58 PM 28.8 °F 21.7 °F 7.0 °F 40% 29.89 in 10.0 mi Variable 6.9 mph - N/A   Mostly Cloudy
10:58 PM 29.3 °F 23.2 °F 7.5 °F 40% 29.85 in 10.0 mi Variable 5.8 mph - N/A   Mostly Cloudy
11:58 PM 32.0 °F 24.8 °F 6.3 °F 34% 29.80 in 10.0 mi SSW 8.1 mph - N/A   Overcast